Tracking 32418 objects as of 9-Dec-2025
HD Live streaming from Space Station
objects crossing your sky now

COSMOS 2409

Track COSMOS 2409 now!
10-day predictions
COSMOS 2409 is classified as:


NORAD ID: 28420
Int'l Code: 2004-037B
Perigee: 1,481.0 km
Apogee: 1,501.5 km
Inclination: 82.5 °
Period: 115.6 minutes
Semi major axis: 7862 km
RCS: 1.0044 m2 (large)
Launch date: September 23, 2004
Source: Commonwealth of Independent States (former USSR) (CIS)
Launch site: PLESETSK MISSILE AND SPACE COMPLEX (PKMTR)

Store-dump communications for Russian government and military.
Your satellite tracking list
Your tracking list is empty




NASA's NSSDC Master Catalog

Two Line Element Set (TLE):
1 28420U 04037B   25342.96501782 -.00000015  00000-0 -17260-3 0  9991
2 28420  82.4850  88.1846 0013010 339.9510  20.1058 12.45318999963875
Source of the keplerian elements: AFSPC